Home   Weather   Hof (Saale)   Past weeks

Flag for Germany Past Weather in Hof (Saale), Bavaria, Germany — Yesterday and Last 2 Weeks

Now
39 °F

Clear.


Feels Like: 34 °F
Forecast: 29 / 39 °F
Wind: 8 mph from Southwest

Location: Hof Airport

Current Time: Dec 10, 2016 at 7:30:28 pm

Latest Report: Dec 10, 2016 at 5:50 pm


Visibility: 10 mi

Pressure: 30.21 "Hg

Humidity: 81%

Dew Point: 34 °F

Location of Hof (Saale)Location

Past Weather in Hof (Saale) — Graph

°F

Hof (Saale) Temperature Yesterday

Maximum temperature yesterday: 37 °F (at 11:50 am)
Minimum temperature yesterday: 36 °F (at 6:50 am)
Average temperature yesterday: 36 °F

High & Low Weather Summary for the Past Weeks

 TemperatureHumidityPressure
High45 °F (Dec 10, 11:20 am)100% (Nov 26, 9:20 am)30.51 "Hg (Nov 26, 9:20 am)
Low16 °F (Dec 7, 7:50 am)55% (Nov 29, 1:50 pm)29.95 "Hg (Dec 2, 6:50 am)
Average31 °F81%30.29 "Hg
* Reported Nov 25 5:20 pm — Dec 10 5:50 pm, Hof (Saale), Weather by CustomWeather, © 2016

Note: Actual official high and low records may vary slightly from our data, if they occured in-between our weather recording intervals... More about our weather records

Advertising

Hof (Saale) Weather History for the Previous 24 Hours

Scroll right to see more
 ConditionsComfort  
Time TempWeatherWind HumidityBarometerVisibility
5:50 pm
Sat, Dec 10
39 °FClear.8 mph81%30.21 "Hg10 mi
5:20 pm39 °FPassing clouds.7 mph81%30.21 "HgN/A
4:50 pm39 °FClear.5 mph81%30.21 "Hg10 mi
4:20 pm39 °FClear.8 mph81%30.21 "Hg10 mi
3:50 pm41 °FPassing clouds.5 mph76%30.21 "HgN/A
3:20 pm43 °FPassing clouds.6 mph71%30.21 "HgN/A
2:50 pm43 °FSunny.7 mph71%30.21 "Hg10 mi
2:20 pm45 °FPassing clouds.9 mph71%30.21 "HgN/A
1:50 pm45 °FSunny.13 mph71%30.21 "Hg10 mi
1:20 pm45 °FSunny.16 mph71%30.21 "Hg10 mi
12:50 pm45 °FSunny.15 mph71%30.21 "Hg10 mi
12:20 pm45 °FSunny.14 mph71%30.24 "Hg10 mi
11:50 am45 °FSunny.15 mph71%30.24 "Hg10 mi
11:20 am45 °FSunny.14 mph66%30.24 "Hg10 mi
10:50 am43 °FSunny.16 mph71%30.24 "Hg10 mi
10:20 am43 °FSunny.12 mph71%30.24 "Hg10 mi
9:50 am43 °FSunny.13 mph71%30.24 "Hg10 mi
9:20 am43 °FSunny.14 mph81%30.24 "Hg10 mi
7:50 pm
Fri, Dec 9
37 °FFog.10 mph93%30.36 "Hg2 mi
7:20 pm37 °FFog.13 mph87%30.36 "Hg2 mi
Weather by CustomWeather, © 2016

See weather overviewHow to use our weather pages